TimeCDT,TemperatureF,Dew PointF,Humidity,Sea Level PressureIn,VisibilityMPH,Wind Direction,Wind SpeedMPH,Gust SpeedMPH,PrecipitationIn,Events,Conditions,WindDirDegrees,DateUTC
12:58 AM,43.5,25.3,49,30.31,10.0,NW,5.8,-,N/A,,Clear,310,2013-03-14 05:58:00
1:58 AM,42.4,25.2,50,30.32,10.0,NNW,5.8,-,N/A,,Clear,330,2013-03-14 06:58:00
2:58 AM,40.8,24.6,53,30.32,10.0,NNW,5.8,-,N/A,,Clear,340,2013-03-14 07:58:00
3:58 AM,39.7,23.9,53,30.31,10.0,NNW,5.8,-,N/A,,Clear,330,2013-03-14 08:58:00
4:58 AM,37.6,24.3,59,30.34,10.0,NW,5.8,-,N/A,,Clear,320,2013-03-14 09:58:00
5:58 AM,37.0,24.6,61,30.35,10.0,North,5.8,-,N/A,,Clear,360,2013-03-14 10:58:00
6:58 AM,36.1,24.3,62,30.37,10.0,North,6.9,-,N/A,,Clear,350,2013-03-14 11:58:00
7:58 AM,38.3,25.3,60,30.41,10.0,North,8.1,-,N/A,,Clear,350,2013-03-14 12:58:00
8:58 AM,41.0,22.6,48,30.42,10.0,North,16.1,19.6,N/A,,Clear,360,2013-03-14 13:58:00
9:58 AM,44.4,20.8,39,30.42,10.0,North,8.1,-,N/A,,Clear,360,2013-03-14 14:58:00
10:58 AM,48.2,20.5,33,30.41,10.0,NNW,10.4,-,N/A,,Clear,340,2013-03-14 15:58:00
11:58 AM,52.0,19.2,28,30.39,10.0,North,8.1,-,N/A,,Clear,360,2013-03-14 16:58:00
12:58 PM,55.4,18.9,24,30.35,10.0,North,6.9,-,N/A,,Clear,360,2013-03-14 17:58:00
1:58 PM,58.3,20.3,23,30.33,10.0,WNW,8.1,-,N/A,,Clear,300,2013-03-14 18:58:00
2:58 PM,60.4,18.7,20,30.31,10.0,NNW,12.7,-,N/A,,Clear,330,2013-03-14 19:58:00
3:58 PM,61.9,17.2,18,30.29,10.0,North,11.5,18.4,N/A,,Clear,10,2013-03-14 20:58:00
4:58 PM,61.9,16.0,17,30.26,10.0,Variable,6.9,-,N/A,,Clear,0,2013-03-14 21:58:00
5:58 PM,61.0,19.2,20,30.27,10.0,NNW,6.9,-,N/A,,Clear,340,2013-03-14 22:58:00
6:58 PM,56.7,21.2,25,30.28,10.0,NW,6.9,-,N/A,,Clear,320,2013-03-14 23:58:00
7:58 PM,53.6,21.6,29,30.29,10.0,NW,4.6,-,N/A,,Clear,310,2013-03-15 00:58:00
8:58 PM,51.8,22.1,31,30.29,10.0,WNW,3.5,-,N/A,,Clear,290,2013-03-15 01:58:00
9:58 PM,46.6,25.5,44,30.31,10.0,Calm,Calm,-,N/A,,Clear,0,2013-03-15 02:58:00
10:58 PM,45.0,26.8,49,30.31,10.0,Calm,Calm,-,N/A,,Clear,0,2013-03-15 03:58:00
11:58 PM,42.3,29.8,61,30.31,10.0,WNW,1.2,-,N/A,,Clear,290,2013-03-15 04:58:00